BOX513 VHHH-EDDP

Flight info

Callsign BOX513
Flight time N/A
Altitude 25600
Route BEKOL A461 SHL W22 TEPID W24 OSNOV G586 QP B330 ELKAL W179 BIPIP/K0906S0840 W179 IGNAK/K0889S0810 W179 WFX/K0902S0840 W179 OMBON/K0928S0920 Y1 SADAN W186 KAMUD/K0896F300 L141 TISIB L163 SR N193 OGOLI T898 DARVA/N0484F300 B476 METKA L88 NIJAT/N0479F320 N644 ADEKI DCT BADIR DCT LAGAS DCT NOLGA UG261 TBN UM11 CRM UL746 ODERO L746 LUGEB DCT NARKA DCT MAKAL DCT BEFRE DCT IVQOQ T951 YAWOY YAWOY1R
Aircraft B77L/H-SDE1E2E3FGHIJ2J3J4J5M1RWXY/LB1D1

Departure

Time N/A
Airport Hong Kong International Airport (VHHH)

Arrival

Time 2026-05-06 09:48
Airport Leipzig/Halle Airport (EDDP)
Time Latitude Longitude Altitude Speed Heading
2026-05-06 08:59 49.69577 17.28806 35855 ft 455 kts 302°
2026-05-06 08:59 49.71545 17.24896 35847 ft 455 kts 302°
2026-05-06 09:00 49.75428 17.17166 35840 ft 455 kts 302°
2026-05-06 09:00 49.79279 17.09478 35844 ft 455 kts 301°
2026-05-06 09:01 49.83153 17.01721 35845 ft 455 kts 301°
2026-05-06 09:01 49.87021 16.93951 35851 ft 456 kts 301°
2026-05-06 09:02 49.90895 16.86148 35840 ft 456 kts 301°
2026-05-06 09:02 49.94759 16.78341 35839 ft 456 kts 301°
2026-05-06 09:03 49.98621 16.70518 35839 ft 456 kts 301°
2026-05-06 09:03 50.02477 16.62682 35858 ft 456 kts 301°
2026-05-06 09:04 50.06330 16.54825 35845 ft 457 kts 301°
2026-05-06 09:04 50.10180 16.46957 35835 ft 457 kts 301°
2026-05-06 09:05 50.14027 16.39070 35830 ft 457 kts 301°
2026-05-06 09:05 50.17863 16.31180 35833 ft 456 kts 301°
2026-05-06 09:06 50.21694 16.23277 35837 ft 457 kts 301°
2026-05-06 09:06 50.25525 16.15350 35835 ft 457 kts 301°
2026-05-06 09:07 50.29348 16.07415 35833 ft 457 kts 301°
2026-05-06 09:07 50.33166 15.99467 35824 ft 457 kts 301°
2026-05-06 09:08 50.36982 15.91502 35830 ft 457 kts 301°
2026-05-06 09:08 50.40792 15.83521 35825 ft 458 kts 300°
2026-05-06 09:09 50.44600 15.75522 35830 ft 458 kts 300°
2026-05-06 09:09 50.48402 15.67510 35820 ft 458 kts 300°
2026-05-06 09:10 50.52206 15.59471 35819 ft 458 kts 300°
2026-05-06 09:10 50.56006 15.51413 35823 ft 459 kts 300°
2026-05-06 09:11 50.59813 15.43315 35822 ft 461 kts 300°
2026-05-06 09:11 50.63623 15.35188 35822 ft 461 kts 300°
2026-05-06 09:12 50.67432 15.27039 35809 ft 462 kts 300°
2026-05-06 09:12 50.71239 15.18866 35804 ft 462 kts 300°
2026-05-06 09:13 50.75034 15.10696 35836 ft 462 kts 301°
2026-05-06 09:13 50.78840 15.02475 35814 ft 463 kts 300°
2026-05-06 09:14 50.82637 14.94245 35789 ft 463 kts 300°
2026-05-06 09:14 50.85793 14.87385 35797 ft 463 kts 301°
2026-05-06 09:15 50.89578 14.79137 35784 ft 463 kts 300°
2026-05-06 09:15 50.93026 14.70600 35795 ft 457 kts 291°
2026-05-06 09:16 50.95406 14.61336 35786 ft 450 kts 282°
2026-05-06 09:16 50.97101 14.51774 35794 ft 450 kts 281°
2026-05-06 09:17 50.98758 14.42200 35784 ft 450 kts 281°
2026-05-06 09:17 51.00434 14.32614 35784 ft 451 kts 281°
2026-05-06 09:18 51.02123 14.23002 35789 ft 452 kts 281°
2026-05-06 09:18 51.03809 14.13374 35791 ft 453 kts 281°
2026-05-06 09:19 51.05490 14.03719 35779 ft 454 kts 281°
2026-05-06 09:19 51.07167 13.94031 35774 ft 454 kts 281°
2026-05-06 09:20 51.08834 13.84343 35774 ft 455 kts 281°
2026-05-06 09:20 51.10494 13.74645 35779 ft 454 kts 281°
2026-05-06 09:21 51.12151 13.64906 35394 ft 461 kts 281°
2026-05-06 09:21 51.12986 13.59980 34895 ft 459 kts 281°
2026-05-06 09:21 51.13812 13.55099 34407 ft 453 kts 281°
2026-05-06 09:21 51.14625 13.50288 33923 ft 447 kts 280°
2026-05-06 09:22 51.15425 13.45537 33384 ft 442 kts 280°
2026-05-06 09:22 51.16214 13.40832 32859 ft 436 kts 280°
2026-05-06 09:22 51.16898 13.36168 32373 ft 428 kts 275°
2026-05-06 09:22 51.17298 13.31507 31885 ft 420 kts 271°
2026-05-06 09:23 51.17433 13.26905 31400 ft 412 kts 266°
2026-05-06 09:23 51.17399 13.22367 30953 ft 407 kts 266°
2026-05-06 09:23 51.17371 13.17900 30508 ft 402 kts 266°
2026-05-06 09:23 51.17349 13.13492 30061 ft 397 kts 266°
2026-05-06 09:24 51.17330 13.09118 29574 ft 393 kts 266°
2026-05-06 09:24 51.17312 13.04791 29081 ft 388 kts 266°
2026-05-06 09:24 51.17294 13.00519 28640 ft 383 kts 266°
2026-05-06 09:24 51.17275 12.96309 28193 ft 378 kts 266°
2026-05-06 09:25 51.17255 12.92154 27788 ft 373 kts 266°
2026-05-06 09:25 51.17233 12.88036 27331 ft 370 kts 266°
2026-05-06 09:25 51.17210 12.83960 26917 ft 366 kts 266°
2026-05-06 09:25 51.17140 12.79931 26491 ft 362 kts 263°
2026-05-06 09:26 51.16965 12.75949 26077 ft 358 kts 262°
2026-05-06 09:26 51.16775 12.72011 25673 ft 355 kts 262°
2026-05-06 09:26 51.16591 12.68098 25282 ft 353 kts 262°
2026-05-06 09:26 51.16420 12.64250 24874 ft 352 kts 262°
2026-05-06 09:27 51.16249 12.60323 24468 ft 350 kts 262°
2026-05-06 09:27 51.16080 12.56468 24071 ft 348 kts 262°
2026-05-06 09:27 51.15910 12.52636 23692 ft 346 kts 262°
2026-05-06 09:27 51.15740 12.48819 23289 ft 345 kts 262°
2026-05-06 09:28 51.15570 12.45027 22839 ft 343 kts 262°
2026-05-06 09:28 51.15401 12.41299 22433 ft 340 kts 262°
2026-05-06 09:28 51.15230 12.37552 22035 ft 338 kts 262°
2026-05-06 09:28 51.15060 12.33831 21642 ft 335 kts 262°
2026-05-06 09:29 51.14887 12.30094 21270 ft 333 kts 262°
2026-05-06 09:29 51.14718 12.26474 20874 ft 331 kts 262°
2026-05-06 09:29 51.14547 12.22830 20501 ft 329 kts 262°
2026-05-06 09:29 51.14375 12.19200 20129 ft 328 kts 262°
2026-05-06 09:30 51.14203 12.15575 19727 ft 327 kts 263°
2026-05-06 09:30 51.14031 12.11969 19354 ft 326 kts 263°
2026-05-06 09:30 51.13858 12.08380 18978 ft 325 kts 262°
2026-05-06 09:30 51.13685 12.04804 18603 ft 324 kts 262°
2026-05-06 09:31 51.13705 12.01248 18194 ft 323 kts 278°
2026-05-06 09:31 51.14505 11.97883 17804 ft 330 kts 296°
2026-05-06 09:31 51.15924 11.94966 17354 ft 340 kts 311°
2026-05-06 09:31 51.17830 11.92596 16855 ft 354 kts 324°
2026-05-06 09:32 51.20108 11.91039 16441 ft 363 kts 346°
2026-05-06 09:32 51.22656 11.91128 15878 ft 375 kts 14°
2026-05-06 09:32 51.24918 11.93081 15575 ft 372 kts 41°
2026-05-06 09:32 51.26393 11.96395 15279 ft 363 kts 71°
2026-05-06 09:33 51.26743 12.00252 15089 ft 346 kts 101°
2026-05-06 09:33 51.26356 12.03968 14610 ft 340 kts 95°
2026-05-06 09:33 51.26514 12.07776 14245 ft 348 kts 83°
2026-05-06 09:33 51.26952 12.11653 13834 ft 361 kts 81°
2026-05-06 09:34 51.27426 12.15608 13472 ft 363 kts 81°
2026-05-06 09:34 51.27856 12.19579 13154 ft 367 kts 83°
2026-05-06 09:34 51.28265 12.23699 13160 ft 384 kts 84°
2026-05-06 09:34 51.28658 12.28010 13069 ft 401 kts 84°
2026-05-06 09:35 51.29019 12.32480 12596 ft 407 kts 85°
2026-05-06 09:35 51.29344 12.36951 12173 ft 403 kts 85°
2026-05-06 09:35 51.29651 12.41364 11755 ft 397 kts 85°
2026-05-06 09:35 51.29953 12.45706 11353 ft 386 kts 85°
2026-05-06 09:36 51.30243 12.49800 10925 ft 357 kts 85°
2026-05-06 09:36 51.30515 12.53597 10580 ft 331 kts 85°
2026-05-06 09:36 51.30769 12.57130 10281 ft 309 kts 85°
2026-05-06 09:36 51.31004 12.60396 10154 ft 284 kts 85°
2026-05-06 09:37 51.31225 12.63489 10075 ft 285 kts 85°
2026-05-06 09:37 51.31454 12.66731 10000 ft 300 kts 85°
2026-05-06 09:37 51.31690 12.70066 9899 ft 299 kts 85°
2026-05-06 09:37 51.31872 12.73328 9774 ft 292 kts 88°
2026-05-06 09:38 51.31997 12.76533 9498 ft 286 kts 88°
2026-05-06 09:38 51.32120 12.79720 9217 ft 289 kts 88°
2026-05-06 09:38 51.32353 12.82932 8806 ft 295 kts 72°
2026-05-06 09:38 51.33423 12.85697 8437 ft 294 kts 39°
2026-05-06 09:39 51.35151 12.87265 8090 ft 282 kts 10°
2026-05-06 09:39 51.37043 12.87466 7770 ft 267 kts 345°
2026-05-06 09:39 51.38779 12.86637 7449 ft 255 kts 328°
2026-05-06 09:39 51.40187 12.85069 7163 ft 245 kts 314°
2026-05-06 09:40 51.41464 12.83214 6885 ft 250 kts 313°
2026-05-06 09:40 51.42724 12.81278 6580 ft 250 kts 305°
2026-05-06 09:40 51.43596 12.76074 5984 ft 247 kts 270°
2026-05-06 09:41 51.43584 12.73313 5654 ft 246 kts 266°
2026-05-06 09:41 51.43491 12.70604 5353 ft 243 kts 265°
2026-05-06 09:41 51.43370 12.67918 5026 ft 240 kts 265°
2026-05-06 09:41 51.43244 12.65283 4734 ft 235 kts 265°
2026-05-06 09:42 51.43123 12.62704 4488 ft 228 kts 265°
2026-05-06 09:42 51.43010 12.60256 4374 ft 213 kts 265°
2026-05-06 09:42 51.42904 12.57970 4283 ft 199 kts 265°
2026-05-06 09:42 51.42801 12.55812 4087 ft 188 kts 265°
2026-05-06 09:43 51.42708 12.53780 3873 ft 178 kts 265°
2026-05-06 09:43 51.42619 12.51854 3615 ft 168 kts 266°
2026-05-06 09:43 51.42536 12.50058 3397 ft 155 kts 265°
2026-05-06 09:43 51.42457 12.48355 3238 ft 151 kts 265°
2026-05-06 09:44 51.42381 12.46728 3096 ft 142 kts 266°
2026-05-06 09:44 51.42306 12.45124 2904 ft 146 kts 266°
2026-05-06 09:44 51.42231 12.43493 2706 ft 148 kts 265°
2026-05-06 09:44 51.42155 12.41855 2502 ft 147 kts 265°
2026-05-06 09:45 51.42078 12.40212 2319 ft 148 kts 266°
2026-05-06 09:45 51.42002 12.38574 2099 ft 148 kts 265°
2026-05-06 09:45 51.41925 12.36933 1917 ft 147 kts 266°
2026-05-06 09:45 51.41849 12.35282 1698 ft 148 kts 266°
2026-05-06 09:46 51.41776 12.33668 1475 ft 144 kts 266°
2026-05-06 09:46 51.41693 12.32086 1273 ft 143 kts 265°
2026-05-06 09:46 51.41615 12.30493 1071 ft 144 kts 266°
2026-05-06 09:46 51.41541 12.28840 919 ft 150 kts 266°
2026-05-06 09:47 51.41467 12.27177 734 ft 153 kts 266°
2026-05-06 09:47 51.41391 12.25468 537 ft 154 kts 267°
2026-05-06 09:47 51.41319 12.23852 474 ft 131 kts 265°
2026-05-06 09:47 51.41262 12.22625 473 ft 87 kts 265°
2026-05-06 09:48 51.41227 12.21960 472 ft 28 kts 258°
2026-05-06 09:48 51.41154 12.21719 469 ft 21 kts 234°
2026-05-06 09:48 51.41055 12.21734 470 ft 16 kts 107°
2026-05-06 09:48 51.41058 12.21916 472 ft 16 kts 85°
2026-05-06 09:49 51.41066 12.22094 473 ft 16 kts 85°
2026-05-06 09:49 51.41074 12.22274 467 ft 16 kts 85°
2026-05-06 09:49 51.41083 12.22454 471 ft 16 kts 85°
2026-05-06 09:49 51.41092 12.22634 473 ft 16 kts 85°
2026-05-06 09:50 51.41100 12.22814 472 ft 16 kts 85°
2026-05-06 09:50 51.41109 12.22994 481 ft 16 kts 85°
2026-05-06 09:50 51.41118 12.23175 475 ft 16 kts 86°
2026-05-06 09:50 51.41126 12.23355 485 ft 16 kts 85°
2026-05-06 09:51 51.41135 12.23535 479 ft 16 kts 85°
2026-05-06 09:51 51.41144 12.23718 476 ft 17 kts 86°
2026-05-06 09:51 51.41152 12.23902 477 ft 17 kts 86°
2026-05-06 09:51 51.41159 12.24075 474 ft 16 kts 86°
2026-05-06 09:52 51.41168 12.24257 474 ft 17 kts 85°
2026-05-06 09:52 51.41176 12.24441 473 ft 17 kts 85°
2026-05-06 09:52 51.41142 12.24570 471 ft 13 kts 158°
2026-05-06 09:52 51.41062 12.24642 476 ft 13 kts 159°
2026-05-06 09:53 51.40963 12.24659 469 ft 16 kts 175°
2026-05-06 09:53 51.40869 12.24676 471 ft 7 kts 160°
2026-05-06 09:53 51.40854 12.24745 470 ft 7 kts 92°
2026-05-06 09:53 51.40856 12.24811 468 ft 4 kts 86°
2026-05-06 09:54 51.40856 12.24822 467 ft 0 kts 85°